| time (UTC) | temp C | wind direction | speed KPH | gust KPH | rain 1hr cm | rain 24hr cm | rain mn cm | humidity % | barometer mb |
| 20260507105511 | -17 | 0.0 | 0.0 | 0.00 | 0.36 | 0.05 | 1008.3 | ||
| 20260507105011 | -17 | 0.0 | 0.0 | 0.00 | 0.36 | 0.05 | 1008.2 | ||
| 20260507104539 | -17 | 0.0 | 0.0 | 0.00 | 0.36 | 0.05 | 1008.1 | ||
| 20260507104010 | -17 | 0.0 | 0.0 | 0.00 | 0.36 | 0.05 | 1007.8 | ||
| 20260507103514 | -17 | 0.0 | 0.0 | 0.00 | 0.36 | 0.05 | 1008.0 | ||
| 20260507103027 | -17 | 0.0 | 0.0 | 0.00 | 0.36 | 0.05 | 1008.1 | ||
| 20260507102510 | -17 | 0.0 | 0.0 | 0.00 | 0.36 | 0.05 | 1008.2 | ||
| 20260507102011 | -17 | 0.0 | 0.0 | 0.00 | 0.36 | 0.05 | 1008.3 | ||
| 20260507101528 | -17 | 0.0 | 0.0 | 0.00 | 0.36 | 0.05 | 1008.3 | ||
| 20260507101010 | -17 | 0.0 | 0.0 | 0.00 | 0.36 | 0.05 | 1008.2 | ||
| 20260507100511 | -17 | 0.0 | 0.0 | 0.00 | 0.36 | 0.05 | 1008.0 | ||
| 20260507100026 | -17 | 0.0 | 0.0 | 0.00 | 0.36 | 0.05 | 1007.9 | ||
| 20260507095511 | -17 | 0.0 | 0.0 | 0.00 | 0.36 | 0.05 | 1007.8 | ||
| 20260507095009 | -17 | 0.0 | 0.0 | 0.00 | 0.36 | 0.05 | 1007.9 | ||
| 20260507094523 | -17 | 0.0 | 0.0 | 0.00 | 0.36 | 0.05 | 1007.7 | ||
| 20260507094011 | -17 | 0.0 | 0.0 | 0.00 | 0.36 | 0.05 | 1007.8 | ||
| 20260507093510 | -17 | 0.0 | 0.0 | 0.00 | 0.36 | 0.05 | 1007.6 | ||
| 20260507093034 | -17 | 0.0 | 0.0 | 0.00 | 0.36 | 0.05 | 1007.6 | ||
| 20260507092515 | -17 | 0.0 | 0.0 | 0.00 | 0.36 | 0.05 | 1007.5 | ||
| 20260507092010 | -17 | 0.0 | 0.0 | 0.00 | 0.36 | 0.05 | 1007.5 | ||
| 20260507091536 | -17 | 0.0 | 0.0 | 0.00 | 0.36 | 0.05 | 1007.6 | ||
| 20260507091009 | -17 | 0.0 | 0.0 | 0.00 | 0.36 | 0.05 | 1007.5 | ||
| 20260507090512 | -17 | 0.0 | 0.0 | 0.00 | 0.36 | 0.05 | 1007.6 | ||
| 20260507090022 | -17 | 0.0 | 0.0 | 0.03 | 0.36 | 0.05 | 1007.5 | ||
| 20260507085510 | -17 | 0.0 | 0.0 | 0.03 | 0.36 | 0.05 | 1007.6 | ||
| 20260507085010 | -17 | 0.0 | 0.0 | 0.03 | 0.36 | 0.05 | 1007.8 | ||
| 20260507084541 | -17 | 0.0 | 0.0 | 0.03 | 0.36 | 0.05 | 1008.1 | ||
| 20260507084011 | -17 | 0.0 | 0.0 | 0.03 | 0.36 | 0.05 | 1008.0 | ||
| 20260507083510 | -17 | 0.0 | 0.0 | 0.03 | 0.36 | 0.05 | 1008.1 | ||
| 20260507083030 | -17 | 0.0 | 0.0 | 0.03 | 0.36 | 0.05 | 1008.0 | ||
| 20260507082510 | -17 | 0.0 | 0.0 | 0.05 | 0.36 | 0.05 | 1007.9 | ||
| 20260507082013 | -17 | 0.0 | 0.0 | 0.05 | 0.36 | 0.05 | 1008.1 | ||
| 20260507081536 | -17 | 0.0 | 0.0 | 0.05 | 0.36 | 0.05 | 1008.0 | ||
| 20260507081011 | 9 | 0.0 | 0.0 | 0.05 | 0.36 | 0.05 | 85 | 1008.1 | |
| 20260507080513 | 9 | 286 | 0.0 | 3.2 | 0.05 | 0.36 | 0.05 | 85 | 1007.9 |
| 20260507080028 | 10 | 269 | 0.0 | 3.2 | 0.03 | 0.33 | 0.03 | 85 | 1007.7 |
| 20260507075509 | 10 | 269 | 0.0 | 3.2 | 0.03 | 0.33 | 0.03 | 85 | 1007.5 |
| 20260507075009 | 10 | 269 | 0.0 | 3.2 | 0.03 | 0.33 | 0.03 | 84 | 1008.0 |
| 20260507074526 | 10 | 269 | 0.0 | 3.2 | 0.03 | 0.33 | 0.03 | 84 | 1008.1 |
| 20260507074009 | 10 | 292 | 1.6 | 6.4 | 0.03 | 0.33 | 0.03 | 83 | 1007.7 |
| 20260507073512 | 10 | 311 | 1.6 | 9.7 | 0.03 | 0.33 | 0.03 | 82 | 1007.8 |
| 20260507073016 | 10 | 302 | 1.6 | 12.9 | 0.03 | 0.33 | 0.03 | 81 | 1007.9 |
| 20260507072506 | 10 | 293 | 3.2 | 12.9 | 0.00 | 0.30 | 0.00 | 80 | 1007.7 |
| 20260507072007 | 10 | 317 | 3.2 | 11.3 | 0.00 | 0.30 | 0.00 | 80 | 1007.6 |
| 20260507071521 | 10 | 282 | 3.2 | 9.7 | 0.00 | 0.30 | 0.00 | 79 | 1007.7 |
| 20260507071009 | 10 | 289 | 4.8 | 9.7 | 0.00 | 0.30 | 0.00 | 79 | 1007.6 |
| 20260507070509 | 10 | 291 | 3.2 | 4.8 | 0.00 | 0.30 | 0.00 | 79 | 1007.4 |
| 20260507070026 | 10 | 306 | 3.2 | 4.8 | 0.00 | 0.30 | 0.00 | 79 | 1007.2 |
| 20260507065506 | 11 | 318 | 3.2 | 4.8 | 0.00 | 0.30 | 0.00 | 79 | 1007.0 |
| 20260507065012 | 11 | 282 | 0.0 | 4.8 | 0.00 | 0.30 | 0.00 | 79 | 1007.0 |
| 20260507064528 | 11 | 312 | 1.6 | 6.4 | 0.00 | 0.30 | 0.00 | 79 | 1007.1 |
| 20260507064011 | 11 | 293 | 1.6 | 6.4 | 0.00 | 0.30 | 0.00 | 79 | 1007.2 |
| 20260507063514 | 11 | 280 | 1.6 | 11.3 | 0.00 | 0.30 | 0.00 | 78 | 1007.1 |
| 20260507063028 | 11 | 295 | 3.2 | 11.3 | 0.00 | 0.30 | 0.00 | 79 | 1007.1 |
| 20260507062511 | 11 | 276 | 4.8 | 11.3 | 0.00 | 0.30 | 0.00 | 79 | 1007.2 |
| 20260507062007 | 11 | 279 | 3.2 | 9.7 | 0.00 | 0.30 | 0.00 | 79 | 1007.3 |
| 20260507061518 | 11 | 286 | 3.2 | 11.3 | 0.00 | 0.30 | 0.00 | 79 | 1007.5 |
| 20260507061006 | 11 | 294 | 4.8 | 11.3 | 0.00 | 0.30 | 0.00 | 80 | 1007.4 |
| 20260507060507 | 11 | 260 | 3.2 | 8.0 | 0.00 | 0.30 | 0.00 | 79 | 1007.4 |
| 20260507055507 | 11 | 284 | 1.6 | 14.5 | 0.00 | 0.30 | 0.00 | 79 | 1007.2 |
| 20260507055018 | 11 | 333 | 4.8 | 12.9 | 0.00 | 0.30 | 0.00 | 81 | 1007.2 |
| 20260507054524 | 11 | 317 | 3.2 | 11.3 | 0.00 | 0.30 | 0.00 | 84 | 1007.4 |
| 20260507054007 | 12 | 306 | 3.2 | 8.0 | 0.00 | 0.30 | 0.00 | 86 | 1007.6 |
| 20260507053511 | 12 | 306 | 3.2 | 8.0 | 0.00 | 0.30 | 0.00 | 86 | 1007.4 |
| 20260507053012 | 12 | 304 | 3.2 | 11.3 | 0.00 | 0.30 | 0.00 | 87 | 1007.4 |
| 20260507052504 | 12 | 283 | 4.8 | 14.5 | 0.00 | 0.30 | 0.00 | 87 | 1007.5 |
| 20260507052007 | 12 | 301 | 4.8 | 14.5 | 0.00 | 0.30 | 0.00 | 87 | 1007.6 |
| 20260507051516 | 12 | 267 | 6.4 | 12.9 | 0.00 | 0.30 | 0.00 | 87 | 1007.8 |
| 20260507051007 | 12 | 265 | 3.2 | 11.3 | 0.00 | 0.30 | 0.00 | 87 | 1007.7 |
| 20260507050508 | 12 | 289 | 1.6 | 14.5 | 0.00 | 0.30 | 0.00 | 87 | 1007.4 |
| 20260507050026 | 12 | 266 | 3.2 | 11.3 | 0.00 | 0.30 | 0.00 | 87 | 1007.3 |
| 20260507045508 | 12 | 308 | 3.2 | 8.0 | 0.00 | 0.30 | 0.00 | 87 | 1007.3 |
| 20260507045007 | 12 | 285 | 1.6 | 11.3 | 0.00 | 0.30 | 0.00 | 87 | 1007.2 |
| 20260507044525 | 12 | 308 | 3.2 | 14.5 | 0.00 | 0.30 | 0.00 | 87 | 1007.1 |
| 20260507044008 | 13 | 281 | 4.8 | 14.5 | 0.00 | 0.30 | 0.00 | 88 | 1007.2 |
| 20260507043508 | 13 | 272 | 3.2 | 9.7 | 0.00 | 0.30 | 0.00 | 88 | 1007.2 |
| 20260507043027 | 13 | 279 | 4.8 | 9.7 | 0.00 | 0.30 | 0.00 | 89 | 1007.3 |
| 20260507042512 | 13 | 268 | 3.2 | 9.7 | 0.00 | 0.30 | 0.00 | 90 | 1007.4 |
| 20260507042010 | 13 | 294 | 3.2 | 11.3 | 0.00 | 0.30 | 0.00 | 90 | 1007.5 |
| 20260507041512 | 13 | 300 | 3.2 | 12.9 | 0.00 | 0.30 | 0.00 | 91 | 1007.3 |
| 20260507041006 | 13 | 283 | 3.2 | 12.9 | 0.00 | 0.30 | 0.00 | 91 | 1007.2 |
| 20260507040506 | 13 | 297 | 3.2 | 8.0 | 0.00 | 0.30 | 0.00 | 92 | 1007.2 |
| 20260507040018 | 13 | 234 | 1.6 | 9.7 | 0.00 | 0.30 | 0.00 | 92 | 1007.3 |
| 20260507035508 | 13 | 275 | 3.2 | 9.7 | 0.00 | 0.30 | 0.30 | 92 | 1007.3 |
| 20260507035008 | 13 | 268 | 3.2 | 9.7 | 0.00 | 0.30 | 0.30 | 92 | 1007.4 |
| 20260507034526 | 13 | 268 | 4.8 | 9.7 | 0.00 | 0.30 | 0.30 | 93 | 1007.3 |
| 20260507034012 | 13 | 243 | 4.8 | 9.7 | 0.00 | 0.30 | 0.30 | 93 | 1007.4 |
| 20260507033507 | 13 | 235 | 3.2 | 8.0 | 0.00 | 0.30 | 0.30 | 93 | 1007.4 |
| 20260507033026 | 13 | 248 | 4.8 | 11.3 | 0.00 | 0.30 | 0.30 | 94 | 1007.3 |
| 20260507032512 | 14 | 229 | 4.8 | 11.3 | 0.00 | 0.30 | 0.30 | 94 | 1007.2 |
| 20260507032011 | 14 | 234 | 3.2 | 8.0 | 0.00 | 0.30 | 0.30 | 94 | 1007.0 |
| 20260507031527 | 14 | 258 | 1.6 | 8.0 | 0.00 | 0.30 | 0.30 | 94 | 1006.9 |
| 20260507031009 | 14 | 223 | 4.8 | 8.0 | 0.00 | 0.30 | 0.30 | 94 | 1007.0 |
| 20260507030509 | 14 | 253 | 3.2 | 12.9 | 0.00 | 0.30 | 0.30 | 94 | 1007.0 |
| 20260507030016 | 14 | 241 | 3.2 | 12.9 | 0.00 | 0.30 | 0.30 | 94 | 1006.9 |
| 20260507025505 | 13 | 243 | 4.8 | 12.9 | 0.00 | 0.30 | 0.30 | 94 | 1006.7 |
| 20260507025004 | 13 | 217 | 3.2 | 16.1 | 0.00 | 0.30 | 0.30 | 94 | 1006.6 |
| 20260507024519 | 13 | 248 | 3.2 | 16.1 | 0.00 | 0.30 | 0.30 | 94 | 1006.7 |
| 20260507024008 | 13 | 205 | 6.4 | 11.3 | 0.00 | 0.30 | 0.30 | 94 | 1006.6 |
| 20260507023506 | 13 | 246 | 1.6 | 11.3 | 0.00 | 0.30 | 0.30 | 94 | 1006.6 |
| 20260507023022 | 13 | 209 | 4.8 | 11.3 | 0.00 | 0.30 | 0.30 | 94 | 1006.5 |
| 20260507022510 | 13 | 246 | 3.2 | 11.3 | 0.00 | 0.30 | 0.30 | 94 | 1006.4 |
| 20260507022010 | 13 | 219 | 3.2 | 8.0 | 0.00 | 0.30 | 0.30 | 94 | 1006.4 |
| 20260507021529 | 13 | 254 | 3.2 | 9.7 | 0.00 | 0.30 | 0.30 | 94 | 1006.5 |
| 20260507021011 | 13 | 234 | 1.6 | 9.7 | 0.00 | 0.30 | 0.30 | 94 | 1006.5 |
| 20260507020508 | 13 | 252 | 3.2 | 6.4 | 0.00 | 0.30 | 0.30 | 94 | 1006.6 |
| 20260507020043 | 13 | 309 | 1.6 | 4.8 | 0.00 | 0.30 | 0.30 | 94 | 1006.6 |
| 20260507015510 | 13 | 227 | 0.0 | 4.8 | 0.00 | 0.30 | 0.30 | 94 | 1006.6 |
| 20260507015008 | 13 | 303 | 0.0 | 12.9 | 0.00 | 0.30 | 0.30 | 94 | 1006.6 |
| 20260507014517 | 13 | 234 | 1.6 | 12.9 | 0.00 | 0.30 | 0.30 | 94 | 1006.7 |
| 20260507014007 | 13 | 218 | 0.0 | 6.4 | 0.00 | 0.30 | 0.30 | 94 | 1006.6 |
| 20260507013507 | 13 | 226 | 1.6 | 8.0 | 0.00 | 0.30 | 0.30 | 94 | 1006.6 |
| 20260507013025 | 13 | 279 | 3.2 | 8.0 | 0.00 | 0.30 | 0.30 | 94 | 1006.4 |
| 20260507012507 | 13 | 240 | 1.6 | 6.4 | 0.00 | 0.30 | 0.30 | 94 | 1006.3 |
| 20260507012008 | 13 | 214 | 0.0 | 8.0 | 0.00 | 0.30 | 0.30 | 94 | 1006.3 |
| 20260507011537 | 13 | 254 | 1.6 | 8.0 | 0.00 | 0.30 | 0.30 | 94 | 1006.4 |
| 20260507011006 | 13 | 254 | 0.0 | 8.0 | 0.00 | 0.30 | 0.30 | 94 | 1006.6 |
| 20260507010510 | 13 | 217 | 3.2 | 6.4 | 0.00 | 0.30 | 0.30 | 94 | 1006.8 |
| 20260507010033 | 13 | 175 | 3.2 | 9.7 | 0.00 | 0.30 | 0.30 | 94 | 1006.7 |
| 20260507005509 | 13 | 196 | 4.8 | 9.7 | 0.00 | 0.30 | 0.30 | 94 | 1006.7 |
| 20260507005013 | 13 | 183 | 1.6 | 6.4 | 0.00 | 0.30 | 0.30 | 94 | 1006.9 |
| 20260507004527 | 13 | 299 | 1.6 | 8.0 | 0.00 | 0.30 | 0.30 | 94 | 1006.8 |
| 20260507004006 | 13 | 223 | 3.2 | 12.9 | 0.00 | 0.30 | 0.30 | 94 | 1006.8 |
| 20260507003508 | 13 | 138 | 4.8 | 12.9 | 0.00 | 0.30 | 0.30 | 94 | 1006.7 |
| 20260507003021 | 13 | 225 | 1.6 | 8.0 | 0.00 | 0.30 | 0.30 | 94 | 1006.8 |
| 20260507002509 | 13 | 211 | 3.2 | 8.0 | 0.00 | 0.30 | 0.30 | 94 | 1006.8 |
| 20260507002011 | 13 | 140 | 1.6 | 8.0 | 0.00 | 0.30 | 0.30 | 94 | 1006.9 |
| 20260507001553 | 13 | 238 | 1.6 | 11.3 | 0.00 | 0.30 | 0.30 | 94 | 1006.9 |
| 20260507001009 | 13 | 228 | 3.2 | 11.3 | 0.03 | 0.30 | 0.30 | 93 | 1006.9 |
| 20260507000511 | 13 | 155 | 3.2 | 11.3 | 0.05 | 0.30 | 0.30 | 93 | 1006.8 |
| 20260507000026 | 13 | 174 | 1.6 | 11.3 | 0.05 | 0.30 | 0.30 | 93 | 1006.7 |
| 20260506235511 | 13 | 215 | 0.0 | 6.4 | 0.05 | 0.30 | 0.30 | 93 | 1006.7 |
| 20260506235014 | 13 | 196 | 3.2 | 6.4 | 0.05 | 0.30 | 0.30 | 93 | 1006.7 |
| 20260506234528 | 13 | 277 | 0.0 | 6.4 | 0.08 | 0.30 | 0.30 | 93 | 1006.7 |
| 20260506234012 | 13 | 292 | 1.6 | 6.4 | 0.08 | 0.30 | 0.30 | 93 | 1006.6 |
| 20260506233509 | 13 | 86 | 0.0 | 8.0 | 0.08 | 0.30 | 0.30 | 93 | 1006.5 |
| 20260506233027 | 13 | 264 | 3.2 | 8.0 | 0.08 | 0.30 | 0.30 | 93 | 1006.4 |
| 20260506232508 | 13 | 289 | 1.6 | 8.0 | 0.08 | 0.30 | 0.30 | 93 | 1006.4 |
| 20260506232005 | 13 | 197 | 1.6 | 8.0 | 0.08 | 0.30 | 0.30 | 93 | 1006.4 |
| 20260506231523 | 13 | 193 | 0.0 | 6.4 | 0.08 | 0.30 | 0.30 | 93 | 1006.3 |
| 20260506231008 | 13 | 202 | 3.2 | 6.4 | 0.05 | 0.28 | 0.28 | 93 | 1006.3 |
| 20260506230515 | 13 | 178 | 1.6 | 11.3 | 0.05 | 0.25 | 0.25 | 93 | 1006.3 |
| 20260506230048 | 13 | 182 | 3.2 | 11.3 | 0.05 | 0.25 | 0.25 | 93 | 1006.3 |
| 20260506225509 | 13 | 171 | 3.2 | 8.0 | 0.05 | 0.25 | 0.25 | 93 | 1006.4 |
| 20260506225011 | 13 | 242 | 1.6 | 6.4 | 0.05 | 0.25 | 0.25 | 93 | 1006.4 |
| 20260506224526 | 13 | 175 | 1.6 | 6.4 | 0.03 | 0.23 | 0.23 | 93 | 1006.4 |
| 20260506224009 | 14 | 224 | 1.6 | 9.7 | 0.03 | 0.23 | 0.23 | 93 | 1006.4 |
| 20260506223507 | 14 | 192 | 1.6 | 9.7 | 0.03 | 0.23 | 0.23 | 93 | 1006.4 |
| 20260506223031 | 14 | 224 | 1.6 | 6.4 | 0.05 | 0.23 | 0.23 | 93 | 1006.4 |
| 20260506222513 | 14 | 238 | 3.2 | 6.4 | 0.05 | 0.23 | 0.23 | 93 | 1006.5 |
| 20260506222015 | 14 | 182 | 1.6 | 9.7 | 0.05 | 0.23 | 0.23 | 93 | 1006.6 |
| 20260506221522 | 14 | 76 | 1.6 | 9.7 | 0.05 | 0.23 | 0.23 | 92 | 1006.5 |
| 20260506221010 | 14 | 267 | 1.6 | 12.9 | 0.05 | 0.23 | 0.23 | 92 | 1006.5 |
| 20260506220507 | 14 | 137 | 3.2 | 12.9 | 0.03 | 0.20 | 0.20 | 92 | 1006.6 |
| 20260506220033 | 14 | 165 | 3.2 | 11.3 | 0.03 | 0.20 | 0.20 | 92 | 1006.7 |
| 20260506215510 | 14 | 131 | 1.6 | 9.7 | 0.03 | 0.20 | 0.20 | 92 | 1006.8 |
| 20260506215009 | 14 | 187 | 1.6 | 8.0 | 0.03 | 0.20 | 0.20 | 92 | 1006.7 |
| 20260506214525 | 14 | 168 | 1.6 | 16.1 | 0.05 | 0.20 | 0.20 | 92 | 1006.7 |
| 20260506214009 | 14 | 182 | 3.2 | 16.1 | 0.05 | 0.20 | 0.20 | 92 | 1006.7 |
| 20260506213515 | 14 | 318 | 0.0 | 6.4 | 0.05 | 0.20 | 0.20 | 92 | 1006.7 |
| 20260506213028 | 14 | 238 | 1.6 | 9.7 | 0.03 | 0.18 | 0.18 | 92 | 1006.8 |
| 20260506212510 | 14 | 103 | 3.2 | 9.7 | 0.03 | 0.18 | 0.18 | 92 | 1006.9 |
| 20260506212016 | 14 | 180 | 3.2 | 11.3 | 0.03 | 0.18 | 0.18 | 92 | 1007.0 |
| 20260506211528 | 14 | 350 | 1.6 | 14.5 | 0.03 | 0.18 | 0.18 | 92 | 1007.0 |
| 20260506211010 | 14 | 188 | 4.8 | 14.5 | 0.03 | 0.18 | 0.18 | 92 | 1007.1 |
| 20260506210515 | 15 | 194 | 1.6 | 9.7 | 0.03 | 0.18 | 0.18 | 92 | 1007.1 |
| 20260506210044 | 14 | 193 | 1.6 | 11.3 | 0.03 | 0.18 | 0.18 | 92 | 1007.1 |
| 20260506205509 | 14 | 158 | 1.6 | 11.3 | 0.03 | 0.18 | 0.18 | 91 | 1007.1 |
| 20260506205003 | 14 | 219 | 1.6 | 11.3 | 0.03 | 0.18 | 0.18 | 91 | 1007.2 |
| 20260506204505 | 14 | 141 | 3.2 | 11.3 | 0.00 | 0.15 | 0.15 | 91 | 1007.3 |
| 20260506204004 | 14 | 273 | 3.2 | 11.3 | 0.00 | 0.15 | 0.15 | 91 | 1007.3 |
| 20260506203503 | 14 | 323 | 1.6 | 11.3 | 0.00 | 0.15 | 0.15 | 91 | 1007.3 |
| 20260506203011 | 14 | 165 | 3.2 | 11.3 | 0.00 | 0.15 | 0.15 | 91 | 1007.3 |
| 20260506202503 | 14 | 179 | 1.6 | 14.5 | 0.00 | 0.15 | 0.15 | 91 | 1007.3 |
| 20260506202007 | 14 | 188 | 3.2 | 14.5 | 0.03 | 0.15 | 0.15 | 91 | 1007.3 |
| 20260506201519 | 14 | 225 | 4.8 | 14.5 | 0.05 | 0.15 | 0.15 | 91 | 1007.5 |
| 20260506201004 | 14 | 126 | 1.6 | 11.3 | 0.05 | 0.15 | 0.15 | 91 | 1007.4 |
| 20260506200504 | 14 | 161 | 3.2 | 9.7 | 0.08 | 0.15 | 0.15 | 91 | 1007.5 |
| 20260506200012 | 14 | 223 | 1.6 | 8.0 | 0.08 | 0.15 | 0.15 | 91 | 1007.6 |
| 20260506195504 | 14 | 54 | 1.6 | 9.7 | 0.10 | 0.15 | 0.15 | 91 | 1007.6 |
| 20260506195005 | 14 | 188 | 3.2 | 6.4 | 0.10 | 0.15 | 0.15 | 91 | 1007.6 |
| 20260506194511 | 14 | 100 | 1.6 | 6.4 | 0.13 | 0.15 | 0.15 | 90 | 1007.6 |
| 20260506194007 | 15 | 182 | 3.2 | 9.7 | 0.13 | 0.15 | 0.15 | 90 | 1007.6 |
| 20260506193504 | 15 | 218 | 1.6 | 9.7 | 0.15 | 0.15 | 0.15 | 90 | 1007.7 |
| 20260506193021 | 15 | 174 | 3.2 | 8.0 | 0.15 | 0.15 | 0.15 | 90 | 1007.7 |
| 20260506192503 | 15 | 207 | 3.2 | 9.7 | 0.15 | 0.15 | 0.15 | 90 | 1007.7 |
| 20260506192006 | 15 | 231 | 3.2 | 9.7 | 0.13 | 0.13 | 0.13 | 89 | 1007.7 |
| 20260506191512 | 15 | 263 | 1.6 | 9.7 | 0.10 | 0.10 | 0.10 | 90 | 1007.6 |
| 20260506191004 | 15 | 119 | 0.0 | 6.4 | 0.10 | 0.10 | 0.10 | 89 | 1007.7 |
| 20260506190509 | 15 | 189 | 1.6 | 6.4 | 0.08 | 0.08 | 0.08 | 88 | 1007.7 |
| 20260506190014 | 15 | 187 | 1.6 | 8.0 | 0.08 | 0.08 | 0.08 | 88 | 1007.8 |
| 20260506185505 | 15 | 165 | 1.6 | 8.0 | 0.05 | 0.05 | 0.05 | 87 | 1007.9 |
| 20260506185004 | 16 | 175 | 1.6 | 11.3 | 0.05 | 0.05 | 0.05 | 86 | 1007.8 |
| 20260506184511 | 16 | 300 | 3.2 | 11.3 | 0.03 | 0.03 | 0.03 | 85 | 1007.8 |
| 20260506184005 | 16 | 152 | 0.0 | 6.4 | 0.03 | 0.03 | 0.03 | 85 | 1007.9 |
| 20260506183507 | 16 | 171 | 0.0 | 6.4 | 0.00 | 0.00 | 0.00 | 84 | 1008.0 |
| 20260506183011 | 16 | 179 | 1.6 | 6.4 | 0.00 | 0.00 | 0.00 | 82 | 1008.1 |
| 20260506182508 | 17 | 142 | 1.6 | 8.0 | 0.00 | 0.00 | 0.00 | 81 | 1008.1 |
| 20260506182005 | 17 | 248 | 3.2 | 12.9 | 0.00 | 0.00 | 0.00 | 79 | 1008.2 |
| 20260506181512 | 17 | 210 | 3.2 | 12.9 | 0.00 | 0.00 | 0.00 | 78 | 1008.3 |
| 20260506181004 | 17 | 256 | 1.6 | 17.7 | 0.00 | 0.00 | 0.00 | 78 | 1008.3 |
| 20260506180504 | 17 | 190 | 1.6 | 17.7 | 0.00 | 0.00 | 0.00 | 77 | 1008.3 |
| 20260506180014 | 18 | 277 | 3.2 | 12.9 | 0.00 | 0.00 | 0.00 | 74 | 1008.4 |
| 20260506175505 | 18 | 192 | 3.2 | 12.9 | 0.00 | 0.00 | 0.00 | 72 | 1008.4 |
| 20260506175005 | 18 | 209 | 6.4 | 11.3 | 0.00 | 0.00 | 0.00 | 70 | 1008.4 |
| 20260506174514 | 19 | 197 | 4.8 | 12.9 | 0.00 | 0.00 | 0.00 | 68 | 1008.5 |
| 20260506174002 | 20 | 220 | 4.8 | 17.7 | 0.00 | 0.00 | 0.00 | 64 | 1008.5 |
| 20260506173504 | 20 | 250 | 6.4 | 17.7 | 0.00 | 0.00 | 0.00 | 62 | 1008.4 |
| 20260506173008 | 20 | 203 | 4.8 | 12.9 | 0.00 | 0.00 | 0.00 | 60 | 1008.3 |
| 20260506172502 | 21 | 204 | 4.8 | 17.7 | 0.00 | 0.00 | 0.00 | 59 | 1008.4 |
| 20260506172005 | 21 | 209 | 3.2 | 17.7 | 0.00 | 0.00 | 0.00 | 60 | 1008.4 |
| 20260506171510 | 21 | 232 | 4.8 | 22.5 | 0.00 | 0.00 | 0.00 | 59 | 1008.3 |
| 20260506171008 | 21 | 325 | 3.2 | 22.5 | 0.00 | 0.00 | 0.00 | 58 | 1008.2 |
| 20260506170505 | 21 | 279 | 4.8 | 16.1 | 0.00 | 0.00 | 0.00 | 58 | 1008.2 |
| 20260506170025 | 21 | 262 | 3.2 | 16.1 | 0.00 | 0.00 | 0.00 | 57 | 1008.3 |
| 20260506165505 | 22 | 153 | 3.2 | 12.9 | 0.00 | 0.00 | 0.00 | 57 | 1008.3 |
| 20260506165007 | 22 | 106 | 3.2 | 12.9 | 0.00 | 0.00 | 0.00 | 56 | 1008.3 |
| 20260506164535 | 22 | 225 | 3.2 | 19.3 | 0.00 | 0.00 | 0.00 | 54 | 1008.4 |
| 20260506164005 | 22 | 239 | 8.0 | 19.3 | 0.00 | 0.00 | 0.00 | 55 | 1008.5 |
| 20260506163504 | 22 | 123 | 3.2 | 19.3 | 0.00 | 0.00 | 0.00 | 59 | 1008.5 |
| 20260506163019 | 21 | 211 | 4.8 | 19.3 | 0.00 | 0.00 | 0.00 | 59 | 1008.7 |
| 20260506162508 | 21 | 156 | 3.2 | 14.5 | 0.00 | 0.00 | 0.00 | 58 | 1008.7 |
| 20260506162001 | 21 | 173 | 3.2 | 14.5 | 0.00 | 0.00 | 0.00 | 58 | 1008.8 |
| 20260506161511 | 21 | 269 | 4.8 | 12.9 | 0.00 | 0.00 | 0.00 | 58 | 1008.8 |
| 20260506161005 | 21 | 213 | 4.8 | 14.5 | 0.00 | 0.00 | 0.00 | 58 | 1009.0 |
| 20260506160506 | 21 | 213 | 6.4 | 19.3 | 0.00 | 0.00 | 0.00 | 58 | 1009.1 |
| 20260506160013 | 21 | 294 | 6.4 | 19.3 | 0.00 | 0.00 | 0.00 | 58 | 1008.9 |
| 20260506155504 | 21 | 217 | 6.4 | 17.7 | 0.00 | 0.00 | 0.00 | 58 | 1009.1 |
| 20260506155007 | 21 | 304 | 3.2 | 16.1 | 0.00 | 0.00 | 0.00 | 60 | 1009.1 |
| 20260506154521 | 21 | 187 | 6.4 | 12.9 | 0.00 | 0.00 | 0.00 | 58 | 1009.2 |
| 20260506154008 | 21 | 182 | 1.6 | 14.5 | 0.00 | 0.00 | 0.00 | 60 | 1009.3 |
| 20260506153507 | 21 | 304 | 3.2 | 19.3 | 0.00 | 0.00 | 0.00 | 60 | 1009.4 |
| 20260506153020 | 20 | 140 | 4.8 | 19.3 | 0.00 | 0.00 | 0.00 | 61 | 1009.4 |
| 20260506152505 | 20 | 95 | 3.2 | 14.5 | 0.00 | 0.00 | 0.00 | 63 | 1009.5 |
| 20260506152009 | 20 | 192 | 4.8 | 12.9 | 0.00 | 0.00 | 0.00 | 62 | 1009.7 |
| 20260506151508 | 20 | 231 | 6.4 | 12.9 | 0.00 | 0.00 | 0.00 | 61 | 1009.7 |
| 20260506151001 | 20 | 182 | 3.2 | 9.7 | 0.00 | 0.00 | 0.00 | 62 | 1009.8 |
| 20260506150504 | 21 | 214 | 3.2 | 14.5 | 0.00 | 0.00 | 0.00 | 62 | 1009.8 |
| 20260506150012 | 20 | 210 | 6.4 | 14.5 | 0.00 | 0.00 | 0.00 | 63 | 1009.8 |
| 20260506145505 | 20 | 259 | 4.8 | 12.9 | 0.00 | 0.00 | 0.00 | 64 | 1009.9 |
| 20260506145008 | 20 | 247 | 1.6 | 12.9 | 0.00 | 0.00 | 0.00 | 65 | 1010.0 |
| 20260506144523 | 20 | 249 | 4.8 | 11.3 | 0.00 | 0.00 | 0.00 | 65 | 1009.9 |
| 20260506144008 | 20 | 218 | 1.6 | 11.3 | 0.00 | 0.00 | 0.00 | 65 | 1009.8 |
| 20260506143506 | 20 | 205 | 1.6 | 12.9 | 0.00 | 0.00 | 0.00 | 66 | 1010.0 |
| 20260506143024 | 19 | 98 | 4.8 | 12.9 | 0.00 | 0.00 | 0.00 | 65 | 1009.9 |
| 20260506142510 | 19 | 182 | 3.2 | 14.5 | 0.00 | 0.00 | 0.00 | 66 | 1009.9 |
| 20260506142009 | 19 | 248 | 4.8 | 14.5 | 0.00 | 0.00 | 0.00 | 67 | 1009.9 |
| 20260506141528 | 19 | 146 | 1.6 | 11.3 | 0.00 | 0.00 | 0.00 | 67 | 1009.8 |
| 20260506141011 | 19 | 81 | 3.2 | 11.3 | 0.00 | 0.00 | 0.00 | 66 | 1009.8 |
| 20260506140505 | 19 | 128 | 3.2 | 11.3 | 0.00 | 0.00 | 0.00 | 67 | 1009.8 |
| 20260506140011 | 19 | 138 | 1.6 | 6.4 | 0.00 | 0.00 | 0.00 | 67 | 1009.7 |
| 20260506135506 | 19 | 286 | 1.6 | 6.4 | 0.00 | 0.00 | 0.00 | 68 | 1009.7 |
| 20260506135003 | 19 | 198 | 1.6 | 6.4 | 0.00 | 0.00 | 0.00 | 70 | 1009.7 |
| 20260506134516 | 18 | 275 | 3.2 | 11.3 | 0.00 | 0.00 | 0.00 | 70 | 1009.8 |
| 20260506134006 | 18 | 198 | 3.2 | 11.3 | 0.00 | 0.00 | 0.00 | 73 | 1009.8 |
| 20260506133508 | 18 | 217 | 3.2 | 12.9 | 0.00 | 0.00 | 0.00 | 73 | 1009.8 |
| 20260506133019 | 17 | 137 | 4.8 | 12.9 | 0.00 | 0.00 | 0.00 | 74 | 1009.8 |
| 20260506132510 | 17 | 318 | 1.6 | 8.0 | 0.00 | 0.00 | 0.00 | 75 | 1009.9 |
| 20260506132007 | 17 | 243 | 3.2 | 9.7 | 0.00 | 0.00 | 0.00 | 75 | 1010.2 |
| 20260506131520 | 17 | 190 | 1.6 | 9.7 | 0.00 | 0.00 | 0.00 | 76 | 1010.3 |
| 20260506131006 | 16 | 301 | 1.6 | 11.3 | 0.00 | 0.00 | 0.00 | 77 | 1010.3 |
| 20260506130508 | 16 | 175 | 4.8 | 11.3 | 0.00 | 0.00 | 0.00 | 77 | 1010.4 |
| 20260506130024 | 16 | 267 | 3.2 | 11.3 | 0.00 | 0.00 | 0.00 | 77 | 1010.4 |
| 20260506125509 | 16 | 270 | 1.6 | 11.3 | 0.00 | 0.00 | 0.00 | 78 | 1010.4 |
| 20260506125002 | 16 | 189 | 4.8 | 11.3 | 0.00 | 0.00 | 0.00 | 77 | 1010.3 |
| 20260506124511 | 16 | 198 | 4.8 | 12.9 | 0.00 | 0.00 | 0.00 | 77 | 1010.2 |
| 20260506124006 | 16 | 163 | 1.6 | 12.9 | 0.00 | 0.00 | 0.00 | 77 | 1010.2 |
| 20260506123506 | 16 | 257 | 4.8 | 11.3 | 0.00 | 0.00 | 0.00 | 76 | 1010.3 |
| 20260506123020 | 16 | 205 | 3.2 | 6.4 | 0.00 | 0.00 | 0.00 | 78 | 1010.3 |
| 20260506122506 | 16 | 298 | 1.6 | 9.7 | 0.00 | 0.00 | 0.00 | 79 | 1010.3 |
| 20260506122012 | 16 | 241 | 3.2 | 9.7 | 0.00 | 0.00 | 0.00 | 79 | 1010.3 |
| 20260506121524 | 16 | 254 | 3.2 | 9.7 | 0.00 | 0.00 | 0.00 | 79 | 1010.6 |
| 20260506121009 | 16 | 183 | 3.2 | 9.7 | 0.00 | 0.00 | 0.00 | 79 | 1010.4 |
| 20260506120507 | 16 | 64 | 3.2 | 9.7 | 0.00 | 0.00 | 0.00 | 80 | 1010.3 |
| 20260506120043 | 15 | 291 | 4.8 | 9.7 | 0.00 | 0.00 | 0.00 | 80 | 1010.3 |
| 20260506115512 | 15 | 190 | 3.2 | 16.1 | 0.00 | 0.00 | 0.00 | 81 | 1010.2 |
| 20260506115007 | 15 | 162 | 4.8 | 16.1 | 0.00 | 0.00 | 0.00 | 81 | 1010.3 |
| 20260506114522 | 15 | 197 | 4.8 | 16.1 | 0.00 | 0.00 | 0.00 | 82 | 1010.3 |
| 20260506114005 | 15 | 251 | 3.2 | 11.3 | 0.00 | 0.00 | 0.00 | 82 | 1010.5 |
| 20260506113510 | 15 | 202 | 1.6 | 9.7 | 0.00 | 0.00 | 0.00 | 83 | 1010.6 |
| 20260506113016 | 14 | 276 | 3.2 | 11.3 | 0.00 | 0.00 | 0.00 | 82 | 1010.6 |
| 20260506112507 | 15 | 273 | 1.6 | 11.3 | 0.00 | 0.00 | 0.00 | 82 | 1010.5 |
| 20260506112007 | 15 | 265 | 4.8 | 9.7 | 0.00 | 0.00 | 0.00 | 82 | 1010.5 |
| 20260506111519 | 14 | 186 | 3.2 | 0.0 | 0.00 | 0.00 | 0.00 | 83 | 1011.0 |
| 20260506111007 | -17 | 0.0 | 0.0 | 0.00 | 0.00 | 0.00 | 1010.8 | ||
| 20260506110507 | -17 | 0.0 | 0.0 | 0.00 | 0.00 | 0.00 | 1010.7 | ||
| 20260506110025 | -17 | 0.0 | 0.0 | 0.00 | 0.00 | 0.00 | 1010.6 |